Location: Kerguer�zec
(48.4509°N, 4.7600°W)
Time: 23:45:26
(UTC+00:00)

N. Korean satellite - Pass Details

Date: 16 March 2021
Orbit: 453 x 499 km, 97.2° (Epoch: 11 April)

Event Time Altitude Azimuth Distance (km) Brightness Sun altitude
Rises 05:48:22 0° 13° (NNE) 2,569 10.5 -7.7°
Reaches altitude 10° 05:50:26 10° 14° (NNE) 1,690 9.6 -7.4°
Maximum altitude 05:54:04 83° 101° (E) 505 6.7 -6.8°
Drops below altitude 10° 05:57:44 10° 191° (SSW) 1,694 9.2 -6.2°
Sets 05:59:49 0° 192° (SSW) 2,576 10.1 -5.8°
